Temperature
2 2 2 2 2 1 1 2 3 4 4 4 3 2 1 -0 -1 -2 -2 -2 -1 -1 -1 -1 -1 -2 -2 -2 -2 -1 -1 -1 -1 -1 -1 -1 -1 -1 -1 -1 -1 -1 -1 -1
0 1 1 1 2 2 1 2 2 2 3 3 2 1 0 -1 -2 -2 -2 -2 -2 -2 -2 -2 -2 -2 -2 -2 -2 -2 -2 -2 -2 -1 -1 -1 -1 -2 -1 -2 -2 -2 -2 -2
2 1 0 2 2 1 1 1 1 2 2 1 0 -0 -1 -1 -2 -2 -3 -2 -2 -2 -2 -2 -2 -2 -2 -3 -3 -3 -3 -2 -2 -2 -2 -2 -2 -2 -2 -2 -2 -2 -2 -2
1 0 1 3 0 0 0 0 -1 -0 -0 -0 -1 -2 -2 -2 -2 -3 -3 -3 -3 -2 -2 -3 -3 -3 -3 -3 -3 -3 -3 -3 -3 -3 -3 -3 -3 -3 -3 -3 -3 -3 -3 -3
0 1 2 2 -1 -2 -1 -1 -2 -2 -2 -2 -3 -3 -2 -2 -3 -3 -4 -3 -3 -3 -3 -3 -3 -3 -4 -4 -4 -4 -4 -4 -4 -4 -4 -3 -3 -3 -3 -3 -3 -3 -3 -3
-1 0 1 2 -2 -4 -2 -0 -2 -3 -3 -4 -4 -2 -1 -3 -4 -4 -4 -4 -4 -3 -3 -4 -4 -4 -4 -4 -4 -4 -4 -4 -4 -4 -4 -4 -4 -4 -4 -4 -4 -4 -4 -4
-1 -0 1 -1 -4 -3 -1 -0 -4 -5 -5 -5 -5 -4 -5 -5 -5 -5 -5 -5 -4 -4 -4 -4 -5 -5 -5 -5 -5 -5 -5 -5 -5 -5 -5 -5 -5 -5 -5 -5 -5 -5 -5 -5
-2 -1 -0 -4 -4 -2 -2 -4 -5 -5 -6 -6 -6 -6 -6 -6 -6 -6 -6 -6 -5 -5 -5 -5 -5 -6 -6 -6 -5 -5 -5 -5 -5 -5 -5 -5 -5 -5 -6 -6 -6 -6 -6 -5
-2 -1 -3 -5 -4 -5 -5 -5 -6 -6 -6 -7 -7 -7 -7 -7 -7 -7 -7 -6 -6 -6 -6 -6 -6 -6 -6 -6 -6 -6 -6 -6 -6 -6 -6 -6 -6 -6 -6 -6 -6 -6 -6 -6
-4 -3 -4 -6 -6 -6 -6 -6 -6 -6 -7 -7 -7 -7 -7 -7 -7 -7 -7 -7 -7 -7 -7 -7 -7 -7 -7 -7 -7 -7 -7 -7 -7 -7 -6 -6 -7 -7 -7 -7 -7 -7 -7 -7
-5 -5 -6 -6 -6 -6 -6 -7 -7 -7 -7 -7 -8 -8 -8 -8 -8 -8 -8 -8 -8 -8 -7 -7 -7 -7 -7 -7 -7 -7 -7 -7 -7 -7 -7 -7 -7 -7 -7 -7 -7 -7 -7 -7
-4 -5 -6 -6 -6 -7 -7 -7 -7 -7 -8 -8 -8 -8 -8 -8 -8 -8 -8 -8 -8 -8 -8 -8 -8 -8 -8 -8 -8 -8 -8 -8 -8 -8 -8 -8 -8 -8 -8 -8 -8 -8 -8 -8
-7 -7 -7 -7 -7 -8 -8 -8 -8 -8 -8 -8 -8 -9 -9 -9 -9 -9 -9 -9 -9 -9 -9 -9 -9 -9 -9 -9 -9 -9 -9 -9 -9 -9 -9 -9 -9 -9 -9 -8 -8 -8 -8 -8
-8 -9 -9 -9 -9 -9 -9 -9 -9 -9 -9 -9 -9 -9 -9 -9 -9 -9 -9 -9 -9 -9 -9 -9 -9 -9 -9 -9 -9 -9 -9 -10 -10 -10 -10 -10 -10 -10 -10 -9 -9 -9 -9 -9
-9 -10 -10 -10 -9 -9 -10 -10 -10 -9 -9 -9 -10 -10 -10 -10 -10 -10 -10 -10 -10 -10 -10 -10 -10 -10 -10 -10 -10 -10 -10 -10 -10 -10 -10 -10 -10 -10 -10 -10 -10 -10 -10 -10
-10 -10 -10 -10 -10 -10 -10 -11 -11 -10 -10 -10 -10 -10 -10 -11 -11 -10 -11 -11 -11 -11 -11 -11 -11 -11 -11 -11 -11 -11 -11 -11 -11 -11 -11 -11 -11 -11 -11 -10 -10 -10 -10 -10
-11 -11 -11 -11 -11 -11 -11 -11 -11 -11 -11 -11 -11 -11 -11 -11 -11 -11 -11 -11 -11 -11 -11 -11 -11 -11 -11 -11 -11 -11 -11 -11 -11 -11 -11 -11 -11 -11 -11 -11 -11 -11 -11 -11
-11 -11 -11 -12 -12 -12 -12 -12 -12 -12 -12 -12 -12 -12 -12 -12 -12 -12 -12 -12 -12 -12 -12 -12 -12 -12 -12 -12 -12 -12 -12 -12 -12 -12 -12 -12 -12 -12 -12 -12 -12 -12 -12 -12
-12 -12 -12 -12 -12 -12 -12 -12 -12 -13 -12 -12 -12 -12 -12 -12 -12 -12 -12 -12 -12 -12 -12 -12 -12 -12 -12 -12 -12 -12 -12 -12 -13 -13 -13 -12 -12 -12 -13 -13 -12 -12 -12 -12
-12 -12 -12 -12 -13 -13 -13 -13 -13 -13 -13 -13 -13 -13 -13 -13 -13 -13 -13 -13 -13 -13 -13 -13 -13 -13 -13 -13 -13 -13 -13 -13 -13 -13 -13 -13 -13 -13 -13 -13 -13 -13 -13 -13
-13 -13 -13 -13 -13 -13 -13 -13 -13 -13 -13 -14 -14 -13 -13 -13 -13 -13 -13 -13 -13 -13 -14 -14 -13 -13 -14 -13 -14 -14 -14 -14 -14 -14 -14 -14 -14 -13 -13 -13 -13 -13 -13 -13
-13 -14 -14 -14 -14 -14 -14 -14 -14 -14 -14 -14 -14 -14 -14 -14 -14 -14 -14 -14 -14 -14 -14 -14 -14 -14 -14 -14 -14 -14 -14 -14 -14 -14 -14 -14 -14 -14 -14 -14 -14 -14 -14 -14
-14 -14 -14 -14 -14 -14 -14 -14 -14 -14 -14 -14 -14 -14 -15 -15 -15 -15 -15 -15 -15 -15 -15 -15 -15 -15 -15 -15 -15 -15 -15 -15 -15 -15 -15 -15 -15 -15 -14 -14 -14 -14 -14 -14
-14 -14 -15 -15 -15 -15 -15 -15 -15 -15 -15 -15 -15 -15 -15 -15 -15 -15 -15 -15 -15 -15 -15 -15 -15 -15 -15 -15 -15 -15 -15 -15 -15 -15 -15 -15 -15 -15 -15 -15 -15 -15 -15 -15
-15 -15 -15 -15 -15 -15 -15 -15 -15 -15 -15 -15 -15 -16 -16 -16 -16 -16 -16 -16 -16 -16 -16 -16 -16 -16 -16 -16 -16 -16 -16 -16 -16 -16 -16 -16 -16 -16 -16 -16 -15 -15 -15 -15
-15 -15 -16 -16 -16 -16 -16 -16 -16 -16 -16 -16 -16 -16 -16 -16 -16 -16 -16 -16 -16 -16 -16 -16 -16 -16 -16 -16 -16 -16 -16 -16 -16 -16 -16 -16 -16 -16 -16 -16 -16 -16 -16 -16
-16 -16 -16 -16 -16 -16 -16 -16 -16 -16 -17 -17 -17 -17 -17 -17 -17 -17 -17 -17 -17 -17 -17 -17 -17 -17 -17 -17 -17 -17 -17 -17 -17 -17 -17 -16 -16 -16 -16 -16 -16 -16 -16 -16
Wind_Speed
11 10 8 11 12 13 14 14 13 16 18 16 12 11 11 9 7 7 6 6 6 6 5 5 4 4 4 4 3 3 3 4 4 3 3 3 3 3 3 4 4 4 5 5
9 9 9 12 14 15 17 16 17 19 19 13 11 10 11 10 8 8 8 7 7 6 6 6 5 5 4 4 3 3 4 4 3 3 3 3 3 3 3 4 4 4 5 5
8 6 7 12 12 13 11 12 12 16 15 11 10 11 11 10 9 8 8 7 7 7 7 6 6 5 5 4 4 4 4 4 3 3 3 3 3 3 4 4 4 4 5 5
5 4 10 5 1 7 11 12 12 11 11 10 10 11 10 9 7 8 8 7 7 6 6 6 5 5 4 4 4 4 4 3 3 3 3 3 3 3 4 4 4 4 4 5
4 8 12 7 2 3 6 10 8 11 12 10 9 9 8 4 6 8 8 7 7 6 5 5 4 4 3 4 4 4 4 4 4 4 4 3 4 4 3 4 4 4 4 5
6 7 9 5 1 1 3 8 2 5 8 7 5 6 6 5 6 6 6 5 5 4 4 3 3 3 4 4 4 5 5 4 4 4 4 4 4 4 4 4 4 4 4 4
10 10 9 2 1 3 5 4 2 4 5 4 5 6 6 6 6 5 5 5 4 3 3 3 2 3 4 4 5 4 3 3 3 4 4 4 4 3 4 3 4 4 4 4
7 8 8 2 4 5 4 3 3 3 4 4 6 6 6 6 6 5 5 5 3 3 3 3 2 3 3 4 3 3 3 3 3 3 3 3 3 3 3 3 4 4 4 4
7 7 2 4 4 3 2 3 3 4 4 4 5 6 6 6 6 5 5 4 3 2 3 2 2 2 3 3 2 2 2 3 3 3 3 3 3 3 3 3 3 3 3 4
6 8 5 5 5 4 4 4 4 4 5 5 6 6 6 5 5 5 4 4 3 3 2 3 2 2 2 1 1 2 2 2 2 3 3 2 3 3 3 3 4 4 4 4
8 6 5 5 5 5 4 5 5 5 5 5 6 6 5 5 4 4 4 3 3 3 3 3 3 2 2 1 1 1 1 1 2 2 2 2 2 3 4 4 5 5 4 4
7 3 4 4 3 3 4 5 5 5 5 4 4 5 5 4 4 3 3 3 3 3 3 3 3 3 2 2 1 1 1 1 1 1 1 2 2 2 2 4 5 6 6 6
4 2 3 4 4 3 3 4 4 4 4 4 4 3 4 4 3 3 3 3 3 4 4 3 3 3 3 2 1 1 1 1 1 1 1 1 2 2 2 3 4 5 6 6
3 2 4 3 3 3 3 3 3 3 3 3 3 3 2 3 3 3 3 4 3 3 3 3 3 3 3 2 1 1 1 2 2 1 1 2 2 2 3 3 3 3 4 5
3 3 4 3 3 3 2 2 2 3 3 3 3 3 3 3 4 4 4 3 3 3 3 3 3 3 3 2 2 2 2 1 1 1 1 1 2 2 2 2 3 3 3 3
3 3 2 3 3 3 3 2 3 4 4 4 4 4 4 4 4 3 3 3 3 3 3 3 4 4 3 2 2 2 2 2 2 1 1 1 1 1 2 2 2 2 3 3
2 2 2 4 4 4 4 4 4 4 4 4 4 4 3 3 3 3 3 3 3 3 3 3 4 3 2 2 2 2 2 2 2 2 1 1 1 2 2 2 2 2 3 3
3 4 4 4 4 4 4 4 3 4 4 4 4 3 2 3 3 4 4 3 3 3 3 3 3 2 2 2 2 2 1 2 2 2 2 2 2 2 2 2 2 3 3 3
2 2 2 3 3 3 3 4 3 3 4 3 3 3 3 3 4 4 3 3 3 4 4 4 4 3 2 3 3 2 2 2 2 2 2 2 2 2 2 2 2 3 3 3
1 2 2 2 2 2 2 3 3 3 3 3 2 2 3 3 3 3 3 3 3 3 4 4 3 3 3 3 3 2 2 2 2 2 2 2 2 3 3 3 3 3 3 3
1 2 2 2 2 2 2 3 2 3 3 2 2 3 4 4 3 3 3 4 4 4 4 4 3 3 3 2 2 2 2 2 2 2 2 3 3 3 3 3 3 3 3 4
1 2 2 2 2 3 3 3 2 3 3 3 3 3 3 3 3 3 3 3 4 5 4 3 3 3 3 3 2 2 2 2 2 2 2 3 3 3 3 4 4 4 4 4
2 2 2 2 2 3 3 3 3 3 3 3 3 3 3 3 3 3 4 3 3 5 3 3 4 4 4 2 2 2 2 2 2 3 3 3 3 4 4 4 4 4 4 4
2 2 2 2 2 2 3 4 4 3 3 3 3 3 3 3 3 3 3 5 6 5 3 4 4 4 3 2 1 2 2 2 3 3 3 3 3 4 4 4 4 4 4 5
2 2 2 2 2 2 3 4 4 3 3 3 4 4 3 3 3 4 4 4 5 5 3 4 4 4 3 2 2 2 2 2 3 3 3 3 4 4 4 4 4 5 5 5
2 2 2 2 2 3 3 3 3 3 3 3 4 4 3 3 3 3 3 3 4 4 3 3 3 3 2 2 2 2 3 3 3 3 3 4 4 4 4 5 6 5 5 5
1 2 2 2 2 2 3 3 3 3 3 3 4 4 4 3 3 3 3 3 3 3 3 3 3 2 2 2 3 3 3 3 3 3 4 4 4 4 5 6 5 5 6 6
Wind_Direction
263 270 256 251 245 230 228 238 250 261 267 273 279 285 289 288 284 273 266 267 263 261 258 244 236 237 237 238 236 232 230 234 240 245 245 242 241 240 242 241 239 230 231 234
267 262 262 265 254 241 240 245 252 266 273 278 285 284 281 281 279 269 268 268 267 267 262 253 244 238 236 236 236 231 233 240 246 243 238 236 236 237 240 242 241 230 228 231
267 282 279 260 242 231 236 238 242 253 264 284 285 279 278 278 272 267 274 277 271 266 257 253 250 240 230 231 231 229 232 241 239 230 232 236 236 232 238 242 246 240 233 231
262 273 253 268 210 229 243 251 242 253 270 277 280 289 286 276 270 275 283 284 280 274 266 259 255 247 232 227 224 226 231 236 233 229 235 234 232 235 243 250 247 245 238 236
231 258 272 268 222 213 241 264 245 251 266 279 293 297 285 283 292 288 288 288 283 279 271 261 249 236 216 220 223 226 231 235 240 235 234 232 233 238 246 253 254 253 246 239
228 251 261 277 164 207 241 263 261 258 269 282 291 282 288 335 323 311 310 308 302 295 280 260 248 222 209 217 222 230 235 241 242 237 232 232 235 240 244 245 252 256 254 246
235 248 263 283 155 167 231 282 328 276 270 266 255 270 303 318 319 321 320 319 318 306 286 271 250 220 220 222 228 235 239 239 236 233 232 232 236 239 235 238 245 250 256 252
219 234 252 146 155 208 263 334 315 299 283 269 276 290 300 306 310 317 320 321 324 316 303 298 257 224 228 234 238 232 228 229 233 233 231 226 226 231 228 229 235 243 251 257
214 234 278 174 209 246 297 284 292 288 284 273 278 284 292 298 303 309 312 315 316 308 307 312 288 242 234 245 234 223 222 225 230 233 229 222 219 220 222 225 230 240 248 253
251 254 257 247 248 272 275 274 283 278 272 269 274 280 284 288 295 303 309 312 312 305 300 306 309 295 272 287 256 221 222 227 222 222 227 224 227 225 225 226 231 237 244 249
252 268 290 260 253 267 276 287 288 287 279 273 273 278 280 284 289 296 303 305 303 292 287 294 309 308 317 323 274 236 236 234 220 222 226 230 238 242 238 239 238 241 240 241
246 251 250 278 310 285 269 276 279 285 287 285 274 274 282 285 289 294 299 306 304 300 296 299 307 311 317 318 281 239 244 249 232 217 213 218 232 268 265 258 265 266 263 256
265 299 273 286 298 299 289 293 297 287 279 284 286 277 278 287 293 299 301 303 299 297 296 300 308 314 322 323 299 260 255 263 253 233 221 226 237 247 262 273 264 264 263 260
263 284 276 275 285 309 305 306 310 304 295 289 290 294 291 291 296 296 298 302 303 300 300 304 307 311 319 313 293 272 270 269 267 248 242 242 246 253 250 250 259 268 265 258
266 261 261 282 299 309 317 319 318 314 318 318 314 305 298 293 291 295 304 309 307 303 305 307 303 307 320 312 297 280 272 268 263 262 260 255 255 260 258 253 254 262 271 269
301 292 269 268 280 296 306 302 297 300 307 309 310 306 299 293 293 300 309 311 303 299 301 300 296 305 313 305 298 292 284 280 282 272 267 262 256 254 257 260 267 265 264 269
268 280 279 286 282 286 283 281 281 288 297 298 300 304 306 309 313 317 320 316 302 295 295 291 296 307 304 296 289 287 286 281 288 288 277 270 266 262 264 266 270 279 283 282
253 264 264 265 269 275 284 289 290 293 292 295 299 299 297 297 298 304 311 317 317 317 314 307 305 304 295 296 294 288 283 281 284 285 283 276 273 270 266 264 266 274 287 297
284 285 290 288 279 269 278 288 294 295 297 296 292 289 289 291 295 301 307 308 307 309 318 318 313 311 299 295 301 283 275 278 283 284 279 277 283 280 272 269 273 280 287 293
334 336 330 327 326 303 291 296 300 303 304 302 298 301 304 304 307 307 301 288 288 298 306 308 305 298 295 286 290 280 269 268 272 277 279 275 274 278 276 275 277 280 283 285
343 341 337 333 330 326 313 305 305 308 312 309 295 292 295 301 304 300 295 295 305 310 307 305 306 298 296 294 278 274 267 267 269 273 275 276 277 279 279 279 278 277 279 283
337 333 330 331 337 335 332 326 319 314 319 323 317 311 309 311 311 300 284 286 302 313 317 304 299 298 307 301 282 280 274 273 276 279 278 277 276 277 278 279 278 280 282 282
322 322 325 329 327 323 330 335 332 327 323 320 314 308 304 300 298 295 297 305 308 309 312 300 303 306 310 312 304 297 288 281 281 281 280 278 276 276 276 276 276 277 279 281
320 326 330 334 334 337 336 334 333 330 322 315 311 305 302 303 301 292 293 305 313 311 306 307 313 321 328 327 309 298 291 287 285 284 283 281 280 278 277 276 276 278 279 281
312 318 327 331 328 322 320 324 329 330 331 329 326 321 310 299 291 300 302 301 305 312 313 313 321 331 338 329 317 307 301 295 294 291 284 282 280 279 278 277 276 278 279 278
310 306 304 302 302 302 308 312 314 318 321 322 323 324 322 315 305 305 304 304 304 314 320 318 320 322 321 313 306 302 300 299 299 298 294 291 286 284 282 281 280 277 276 275
314 313 310 314 316 311 308 306 305 307 310 308 310 319 322 322 320 320 319 320 320 319 318 317 314 310 309 307 304 302 299 297 295 292 290 288 287 286 285 283 282 278 275 273
Height
1484 1484 1484 1482 1481 1483 1483 1477 1471 1461 1460 1458 1462 1464 1463 1462 1461 1460 1459 1458 1457 1457 1456 1455 1455 1455 1455 1455 1456 1456 1456 1457 1457 1458 1459 1460 1461 1462 1463 1464 1465 1466 1468 1469
1486 1482 1482 1479 1475 1476 1475 1473 1469 1465 1460 1459 1461 1462 1461 1459 1458 1457 1455 1454 1454 1453 1452 1451 1451 1451 1451 1451 1452 1452 1453 1453 1453 1454 1455 1456 1457 1458 1459 1460 1460 1462 1462 1463
1477 1480 1480 1468 1466 1468 1467 1465 1465 1461 1456 1458 1459 1458 1457 1456 1454 1453 1452 1451 1449 1448 1448 1447 1447 1447 1448 1448 1448 1449 1449 1449 1450 1450 1451 1452 1453 1454 1454 1455 1456 1457 1458 1459
1479 1480 1471 1457 1464 1464 1463 1461 1462 1459 1457 1457 1457 1455 1454 1453 1451 1450 1449 1447 1446 1445 1444 1443 1443 1443 1443 1444 1444 1445 1445 1445 1446 1446 1447 1447 1448 1449 1450 1451 1452 1452 1453 1454
1478 1471 1458 1457 1463 1465 1464 1457 1458 1457 1456 1456 1455 1453 1450 1449 1448 1447 1446 1444 1443 1442 1440 1439 1439 1439 1439 1440 1440 1441 1441 1441 1442 1442 1443 1443 1444 1445 1446 1447 1447 1448 1449 1449
1476 1469 1457 1452 1462 1463 1464 1454 1455 1455 1454 1454 1453 1450 1446 1446 1444 1443 1442 1441 1439 1438 1437 1436 1435 1436 1436 1436 1436 1436 1437 1437 1438 1438 1439 1439 1440 1441 1442 1443 1443 1444 1444 1445
1470 1465 1454 1459 1462 1463 1459 1450 1454 1453 1452 1452 1451 1449 1447 1444 1443 1441 1439 1437 1436 1434 1433 1433 1432 1432 1432 1432 1432 1433 1433 1433 1434 1434 1435 1435 1436 1437 1438 1438 1439 1439 1440 1440
1467 1463 1456 1459 1460 1459 1454 1454 1452 1451 1451 1450 1448 1446 1444 1442 1440 1438 1437 1435 1433 1432 1431 1430 1429 1429 1428 1429 1429 1429 1429 1430 1430 1430 1431 1431 1432 1432 1433 1434 1434 1435 1435 1435
1460 1455 1454 1455 1454 1454 1454 1453 1451 1450 1449 1448 1446 1444 1442 1440 1438 1437 1435 1433 1431 1430 1428 1427 1427 1426 1426 1425 1425 1425 1425 1426 1426 1426 1427 1428 1428 1428 1429 1430 1430 1430 1430 1431
1459 1452 1453 1452 1452 1452 1451 1450 1449 1448 1446 1445 1443 1441 1439 1438 1436 1435 1433 1431 1429 1428 1426 1425 1424 1423 1423 1422 1422 1422 1421 1422 1422 1422 1423 1423 1424 1424 1425 1425 1426 1426 1426 1427
1455 1451 1451 1449 1449 1448 1448 1447 1446 1444 1443 1442 1440 1438 1437 1435 1433 1432 1431 1429 1428 1426 1424 1423 1422 1421 1420 1419 1419 1418 1418 1418 1418 1418 1419 1419 1420 1420 1421 1421 1422 1423 1423 1423
1447 1448 1449 1447 1446 1446 1445 1443 1442 1441 1439 1438 1437 1435 1434 1432 1431 1430 1428 1426 1425 1423 1422 1421 1419 1418 1418 1417 1416 1415 1415 1415 1415 1415 1415 1415 1416 1416 1416 1417 1418 1419 1419 1420
1447 1446 1446 1444 1444 1443 1441 1440 1439 1438 1437 1435 1434 1433 1431 1430 1428 1427 1425 1424 1422 1421 1420 1418 1417 1416 1415 1414 1414 1413 1413 1412 1412 1412 1412 1412 1412 1413 1413 1413 1414 1415 1415 1415
1444 1444 1443 1442 1441 1440 1438 1437 1436 1435 1434 1433 1431 1430 1428 1427 1426 1424 1423 1421 1420 1419 1418 1416 1415 1414 1413 1412 1412 1411 1410 1410 1410 1409 1410 1409 1409 1409 1409 1409 1409 1409 1410 1411
1441 1441 1440 1439 1438 1437 1436 1434 1433 1432 1431 1430 1428 1427 1426 1424 1423 1422 1420 1419 1418 1417 1415 1414 1413 1412 1411 1410 1409 1409 1408 1408 1408 1407 1407 1406 1406 1406 1406 1406 1406 1406 1406 1406
1438 1437 1436 1436 1435 1434 1433 1432 1430 1429 1428 1427 1426 1425 1423 1422 1421 1419 1418 1417 1415 1414 1413 1412 1411 1410 1409 1408 1407 1406 1406 1405 1405 1404 1404 1404 1403 1403 1403 1403 1402 1402 1402 1402
1435 1434 1433 1432 1432 1431 1430 1430 1429 1427 1426 1425 1424 1423 1421 1420 1418 1417 1416 1414 1413 1412 1411 1410 1409 1408 1407 1406 1405 1404 1404 1403 1403 1402 1402 1401 1401 1400 1400 1399 1399 1399 1399 1399
1433 1432 1431 1430 1429 1428 1428 1427 1426 1425 1424 1423 1422 1420 1419 1418 1416 1415 1413 1412 1411 1410 1409 1408 1407 1406 1405 1404 1403 1403 1402 1401 1401 1400 1399 1399 1398 1398 1397 1396 1396 1395 1395 1395
1430 1429 1429 1428 1427 1426 1425 1425 1424 1423 1422 1421 1419 1418 1417 1416 1414 1413 1411 1410 1408 1407 1406 1405 1404 1404 1403 1402 1401 1401 1400 1399 1399 1398 1397 1396 1396 1395 1394 1394 1393 1392 1392 1391
1428 1427 1426 1425 1425 1424 1423 1422 1421 1420 1419 1418 1417 1416 1414 1413 1412 1410 1409 1408 1407 1405 1404 1403 1402 1401 1401 1400 1399 1399 1398 1397 1396 1395 1395 1394 1393 1392 1392 1391 1390 1390 1389 1388
1426 1425 1424 1423 1423 1422 1421 1420 1419 1418 1417 1416 1415 1413 1412 1411 1410 1408 1406 1405 1405 1403 1402 1401 1400 1399 1399 1398 1397 1396 1396 1395 1394 1393 1392 1391 1390 1390 1389 1388 1388 1387 1386 1386
1424 1423 1423 1422 1421 1420 1419 1418 1417 1416 1415 1414 1412 1411 1410 1409 1407 1406 1405 1404 1402 1401 1400 1399 1398 1397 1397 1396 1395 1394 1394 1393 1392 1391 1390 1389 1388 1387 1386 1386 1385 1384 1383 1382
1423 1422 1421 1420 1419 1418 1417 1416 1415 1414 1413 1411 1410 1409 1408 1406 1405 1404 1402 1401 1400 1399 1398 1397 1396 1395 1395 1394 1393 1392 1391 1391 1390 1389 1388 1387 1386 1385 1384 1383 1382 1381 1380 1379
1421 1420 1420 1419 1418 1416 1415 1414 1413 1412 1411 1409 1408 1407 1405 1404 1403 1401 1400 1399 1398 1396 1395 1395 1394 1393 1392 1391 1390 1390 1389 1388 1387 1386 1385 1384 1383 1382 1381 1380 1379 1378 1377 1376
1420 1419 1418 1417 1416 1415 1414 1412 1411 1410 1409 1407 1406 1404 1403 1402 1400 1399 1397 1396 1395 1394 1393 1392 1391 1391 1390 1389 1388 1387 1386 1385 1384 1383 1382 1381 1380 1379 1378 1377 1376 1375 1374 1372
1418 1417 1416 1415 1414 1413 1412 1410 1409 1408 1406 1405 1404 1402 1401 1399 1398 1396 1395 1393 1392 1392 1391 1390 1389 1388 1387 1386 1385 1385 1384 1383 1382 1381 1379 1378 1377 1376 1375 1374 1373 1371 1370 1369
1416 1415 1415 1413 1412 1411 1410 1409 1407 1406 1405 1403 1401 1400 1399 1397 1395 1394 1393 1391 1390 1389 1389 1388 1387 1386 1385 1384 1383 1382 1381 1380 1379 1378 1376 1375 1374 1373 1371 1370 1369 1368 1366 1365